Location: Unspecified
(0.0000°N, 0.0000°E)
Time: 12:21:20
(UTC+00:00)

deb Midas IV - Visible Passes

Search period start: 15 November 2025 00:00
Search period end: 25 November 2025 00:00
Orbit: 3493 x 3738 km, 95.8° (Epoch: 13 November)

Date Brightness Start Highest point End Pass type
(mag) Time Alt. Az. Time Alt. Az. Time Alt. Az.
15 Nov ? 19:08:59 10° NE 19:25:33 44° ESE 19:42:23 10° S visible
15 Nov ? 21:51:44 10° NNW 22:07:13 38° WNW 22:23:24 10° SW visible
16 Nov ? 19:57:56 10° NNE 20:15:59 76° ESE 20:34:34 10° S visible
16 Nov ? 22:47:52 10° NW 22:57:29 17° WNW 23:07:25 10° WSW visible
17 Nov ? 18:13:13 10° ENE 18:25:13 21° ESE 18:37:14 10° SSE visible
17 Nov ? 20:48:48 10° N 21:06:31 68° WNW 21:24:58 10° SSW visible
18 Nov ? 18:58:49 10° NE 19:15:23 44° ESE 19:32:11 10° S visible
18 Nov ? 21:41:27 10° NNW 21:57:01 38° WNW 22:13:19 10° SW visible
19 Nov ? 19:47:45 10° NNE 20:05:48 75° ESE 20:24:24 10° S visible
19 Nov ? 22:37:29 10° NW 22:47:18 17° WNW 22:57:27 10° WSW visible
20 Nov ? 18:03:08 10° ENE 18:15:03 21° ESE 18:26:58 10° SSE visible
20 Nov ? 20:38:34 10° N 20:56:20 68° WNW 21:14:51 10° SSW visible
21 Nov ? 18:48:39 10° NE 19:05:12 43° ESE 19:21:59 10° SSE visible
21 Nov ? 21:31:11 10° NNW 21:46:50 38° WNW 22:03:13 10° SW visible
22 Nov ? 19:37:33 10° NNE 19:55:36 75° ESE 20:14:14 10° S visible
22 Nov ? 22:27:06 10° NW 22:37:07 18° WNW 22:47:29 10° WSW visible
23 Nov ? 17:53:03 10° ENE 18:04:53 21° ESE 18:16:42 10° SSE visible
23 Nov ? 20:28:20 10° N 20:46:08 69° WNW 21:04:42 10° SSW visible
24 Nov ? 18:38:29 10° NE 18:55:00 43° ESE 19:11:47 10° SSE visible
24 Nov ? 21:20:55 10° NNW 21:36:39 39° WNW 21:53:07 10° SW visible
